Regional Weather Roundup
Issued by NWS Green Bay, WI

Home | Current Version | Previous Version | Text Only | Print | Product List | Glossary On
Versions: 1 2 3 4 5 6 7 8 9 10 11 12 13 14 15 16 17 18 19 20 21 22 23 24 25 26 27 28 29 30 31 32 33 34 35 36 37 38 39 40 41 42 43 44 45 46 47 48 49 50
000
ASUS43 KGRB 081900
RWRGRB

NORTH-CENTRAL AND NORTHEAST WISCONSIN REGIONAL WEATHER ROUNDUP
NATIONAL WEATHER SERVICE GREEN BAY WI
100 PM CST MON FEB 08 2016

WIZ005-009-010>012-018-019-082000-
NORTH CENTRAL WISCONSIN

CITY           SKY/WX    TMP DP  RH WIND       PRES   REMARKS
IRONWOOD       CLOUDY    16  10  79 NW13      29.75S WCI   2
MANITOWISH WTR NOT AVBL
ARBOR VITAE    NOT AVBL
EAGLE RIVER    NOT AVBL
LAND O LAKES   NOT AVBL
RHINELANDER    CLOUDY    22  14  71 NW12G17   29.67S
PHILLIPS       NOT AVBL
ANTIGO         NOT AVBL
TOMAHAWK       NOT AVBL
MERRILL        NOT AVBL
$$

WIZ013-073-082000-
NORTHEAST WISCONSIN

CITY           SKY/WX    TMP DP  RH WIND       PRES   REMARKS
IRON MOUNTAIN  LGT SNOW  22  15  75 N13       29.65S VSB 1   WCI  10
MARINETTE      CLOUDY    28  23  80 N12       29.64S
$$

WIZ017-030-035>037-045-082000-
CENTRAL WISCONSIN

CITY           SKY/WX    TMP DP  RH WIND       PRES   REMARKS
MEDFORD        NOT AVBL
WAUSAU         CLOUDY    24  17  74 NW14      29.68R
MOSINEE        CLOUDY    23  19  86 NW20      29.69S WCI   8
MARSHFIELD     CLOUDY    19  11  70 NW20      29.71S WCI   3
WISC RAPIDS    CLOUDY    21  12  68 N15G23    29.73R WCI   8
STEVENS POINT  NOT AVBL
WAUPACA        NOT AVBL
SHAWANO        NOT AVBL
CLINTONVILLE   NOT AVBL
WAUTOMA        NOT AVBL
$$

WIZ038-039-048-051-082000-
FOX VALLEY

CITY           SKY/WX    TMP DP  RH WIND       PRES   REMARKS
NWS GREEN BAY  LGT SNOW  31  28  89 N10       29.63S FOG
APPLETON       FLURRIES  28  21  74 W12       29.62S
OSHKOSH        FLURRIES  27  20  75 W14       29.64F
FOND DU LAC    LGT SNOW  26  20  77 W9        29.65F VSB 1
$$

WIZ022-050-052-082000-
EAST CENTRAL WISCONSIN

CITY           SKY/WX    TMP DP  RH WIND       PRES   REMARKS
EPHRAIM        NOT AVBL
STURGEON BAY   CLOUDY    30  25  80 N17G23    29.64S
MANITOWOC      NOT AVBL
SHEBOYGAN      LGT SNOW  27  21  78 NW13      29.63S VSB 1
$$

LMZ563-521-522-541>543-082000-
LAKESHORE

STATION/POSITION TIME  TEMP    WIND        PRES    VSBY  WAVE
                       AIR SEA DIR/SP/G                  HT/PER
                 (UTC) (F)     (DEG/KT/KT) (MB)    (MI)  (FT/S)
SHEBOYGAN LKSHOR 1800   28     280/ 15/ 19 1004.3F
KEWAUNEE LKSHORE 1800   33     300/  8/ 11 1002.2F
NORTHPORT PIER   1800   30     340/ 14/ 20 1003.7S
CHAMBERS ISLAND  1800   31     340/ 14/ 17 1003.7F
MENOMINEE LKSHOR 1800   30     340/ 14     1002.7R
$$



USA.gov is the U.S. government's official web portal to all federal, state and local government web resources and services.